Holt Lake Weather Center

Moon Phase Calendar



Holt Lake Water Level
Online Cameras

 


      

Current Conditions in Tuscaloosa County
5/11/2021 9:46:37 PM

67°F
Feels Like 67
Clouds
Humidity
88%
Pressure
30.09"
Wind
3.4 mph (NNW)
Dew Point
63°F
UV Index
0/10 (Low)
Visibility
6 mi

Hourly Forecast

Date & Time Tue, May 11
9:00 PM
Tue, May 11
10:00 PM
Tue, May 11
11:00 PM
Wed, May 12
12:00 AM
Wed, May 12
1:00 AM
Wed, May 12
2:00 AM
Wed, May 12
3:00 AM
Wed, May 12
4:00 AM
Wed, May 12
5:00 AM
Wed, May 12
6:00 AM
Wed, May 12
7:00 AM
Wed, May 12
8:00 AM
Wed, May 12
9:00 AM
Wed, May 12
10:00 AM
Wed, May 12
11:00 AM
Wed, May 12
12:00 PM
Wed, May 12
1:00 PM
Wed, May 12
2:00 PM
Wed, May 12
3:00 PM
Wed, May 12
4:00 PM
Wed, May 12
5:00 PM
Wed, May 12
6:00 PM
Wed, May 12
7:00 PM
Wed, May 12
8:00 PM
Wed, May 12
9:00 PM
Wed, May 12
10:00 PM
Wed, May 12
11:00 PM
Thu, May 13
12:00 AM
Thu, May 13
1:00 AM
Thu, May 13
2:00 AM
Thu, May 13
3:00 AM
Thu, May 13
4:00 AM
Thu, May 13
5:00 AM
Thu, May 13
6:00 AM
Thu, May 13
7:00 AM
Thu, May 13
8:00 AM
Thu, May 13
9:00 AM
Thu, May 13
10:00 AM
Thu, May 13
11:00 AM
Thu, May 13
12:00 PM
Thu, May 13
1:00 PM
Thu, May 13
2:00 PM
Thu, May 13
3:00 PM
Thu, May 13
4:00 PM
Thu, May 13
5:00 PM
Thu, May 13
6:00 PM
Thu, May 13
7:00 PM
Thu, May 13
8:00 PM
Condition
Clouds

Clouds

Rain

Rain

Rain

Rain

Rain

Rain

Rain

Rain

Clouds

Clouds

Clouds

Clouds

Clouds

Clouds

Clouds

Clouds

Clouds

Clouds

Clouds

Clouds

Clouds

Clouds

Clouds

Clouds

Clouds

Clouds

Clouds

Clouds

Clouds

Clouds

Clouds

Clouds

Clouds

Clouds

Clouds

Clouds

Clouds

Clouds

Clouds

Clouds

Clouds

Clouds

Clouds

Clouds

Clouds

Clouds
Temperature 66°F67°F66°F64°F63°F60°F58°F58°F57°F57°F57°F57°F58°F58°F60°F61°F63°F64°F63°F64°F64°F62°F60°F57°F55°F54°F53°F51°F51°F50°F49°F48°F51°F52°F52°F54°F55°F56°F58°F59°F64°F67°F68°F68°F67°F65°F62°F59°F
Feels Like 66°F67°F66°F65°F63°F60°F58°F58°F57°F57°F57°F57°F57°F58°F59°F60°F62°F63°F62°F63°F63°F62°F59°F56°F54°F53°F52°F50°F50°F49°F47°F46°F49°F50°F51°F52°F54°F55°F56°F58°F62°F66°F67°F67°F66°F64°F61°F58°F
Cloudiness 80%75%80%85%90%95%100%100%100%100%100%100%100%100%100%100%100%100%100%98%96%96%97%100%100%100%100%92%93%60%57%54%64%71%76%100%100%100%100%100%95%20%32%43%53%62%68%84%
Visibility 6 mi6 mi6 mi4 mi4 mi3 mi6 mi4 mi5 mi6 mi6 mi6 mi6 mi6 mi6 mi6 mi6 mi6 mi6 mi6 mi6 mi6 mi6 mi6 mi6 mi6 mi6 mi6 mi6 mi6 mi6 mi6 mi6 mi6 mi6 mi6 mi6 mi6 mi6 mi6 mi6 mi6 mi6 mi6 mi6 mi6 mi6 mi6 mi
Precipitation 0%30%65%97%100%100%100%100%100%100%78%5%5%1%1%1%0%0%0%0%0%0%0%0%1%16%18%20%10%5%3%3%3%3%1%0%0%0%0%0%0%0%0%0%0%0%0%0%
Humidity 89%88%90%92%94%96%99%99%99%98%98%96%94%90%78%70%66%61%62%61%65%70%75%79%83%85%87%89%88%90%91%92%85%81%79%75%71%68%66%62%55%50%50%49%52%60%66%67%
Dew Point 63°F63°F63°F62°F61°F59°F57°F57°F57°F56°F56°F56°F56°F55°F53°F52°F51°F51°F50°F51°F52°F53°F52°F50°F49°F49°F49°F48°F48°F47°F46°F46°F46°F46°F46°F46°F46°F46°F46°F46°F47°F48°F49°F49°F49°F50°F50°F48°F
Pressure 30.09"30.09"30.09"30.09"30.06"30.09"30.06"30.06"30.06"30.09"30.12"30.15"30.15"30.15"30.18"30.18"30.18"30.18"30.15"30.15"30.15"30.15"30.21"30.24"30.24"30.24"30.24"30.24"30.24"30.24"30.24"30.24"30.24"30.24"30.27"30.27"30.3"30.3"30.3"30.3"30.27"30.24"30.24"30.21"30.21"30.21"30.24"30.24"
Wind Speed 4 mph3.5 mph4.4 mph5.1 mph6.6 mph4.7 mph2.9 mph3.3 mph5 mph5 mph6.7 mph7 mph7.3 mph7.7 mph8.3 mph8.8 mph9.4 mph9.4 mph9.7 mph9.4 mph8.5 mph8.9 mph9.6 mph9.7 mph9.2 mph7.7 mph7.5 mph6.1 mph6.2 mph5.5 mph5.2 mph4.4 mph4.8 mph5.1 mph5.3 mph6.5 mph6 mph5.9 mph5.8 mph5.9 mph6 mph5.3 mph5.2 mph4.9 mph5.3 mph5.2 mph5.3 mph6.1 mph
Wind
Direction
34°
NE
17°
NNE

N

N
12°
NNE

N
72°
ENE
24°
NNE
35°
NE
15°
NNE

N
21°
NNE
23°
NNE
30°
NNE
25°
NNE
25°
NNE
23°
NNE
25°
NNE
30°
NNE
37°
NE
44°
NE
49°
NE
48°
NE
52°
NE
55°
NE
53°
NE
51°
NE
60°
ENE
54°
NE
47°
NE
55°
NE
44°
NE
59°
ENE
58°
ENE
56°
NE
67°
ENE
68°
ENE
65°
ENE
65°
ENE
75°
ENE
83°
E
74°
ENE
59°
ENE
45°
NE
34°
NE
30°
NNE
36°
NE
43°
NE

Daily Forecast

Date High Low Precip. Humidity
Today
May 11

Rain
71 °F
59 °F
98%
92%
Wednesday
May 12

Rain
64 °F
53 °F
100%
70%
Thursday
May 13

Clouds
68 °F
48 °F
20%
62%
Friday
May 14

Clear
74 °F
47 °F
0%
39%
Saturday
May 15

Clear
79 °F
52 °F
0%
38%
Sunday
May 16

Clouds
82 °F
57 °F
0%
39%
Monday
May 17

Rain
80 °F
63 °F
100%
59%
Tuesday
May 18

Rain
78 °F
65 °F
100%
62%
Wednesday
May 19

Rain
82 °F
64 °F
77%
58%
Thursday
May 20

Rain
81 °F
67 °F
90%
87%
Friday
May 21

Rain
83 °F
67 °F
100%
56%
Saturday
May 22

Rain
80 °F
67 °F
99%
73%
Sunday
May 23

Rain
87 °F
66 °F
20%
48%
Monday
May 24

Rain
89 °F
68 °F
60%
46%
Tuesday
May 25

Clouds
89 °F
69 °F
6%
49%
Wednesday
May 26

Rain
88 °F
73 °F
24%
53%

Temperature 8-14 Day Outlook



Precipitation 8-14 Day Outlook




Quick Links
Holt Lake News
Holt Lake Photos
Holt Lake Videos




About Us
Contact Us
Site Map
Search Site
Advertise With Us
   
Holt.USLakes.info
THE HOLT LAKE WEBSITE

Copyright 2021, Lakes Online
Privacy    |    Legal